SCP
1 1 1 2 1 1 1 0 0 0 0 0 0 0 1 1 1 2 2 1 2 2 3 3 4 3 2 1 1 1 0 0 0 0 0 0 0 0 0 0 0 0 0 0 0 0 0 0 0
1 1 1 1 1 1 0 0 0 0 1 1 1 1 1 2 2 2 2 2 2 2 2 3 4 4 2 1 1 1 0 0 0 1 1 0 0 0 0 0 0 0 0 0 0 0 0 0 0
1 1 1 1 1 1 0 0 0 1 1 1 1 2 2 3 4 3 2 2 2 2 3 4 4 4 2 1 1 1 1 1 1 1 1 1 1 1 0 0 0 0 0 0 0 0 0 0 0
1 1 1 1 1 1 1 0 1 1 2 2 2 2 3 3 4 3 2 2 2 2 3 4 5 4 2 1 1 1 1 1 1 1 1 1 1 1 0 0 0 0 0 0 0 0 0 0 0
1 1 1 1 1 1 0 0 1 1 2 2 2 3 3 3 3 3 3 2 2 3 3 4 5 4 2 1 1 1 1 1 1 1 1 1 1 1 0 0 0 0 0 0 0 0 0 0 0
1 1 1 1 1 0 0 0 1 1 2 2 3 3 3 3 3 3 3 3 3 3 3 3 4 3 2 1 1 1 1 1 1 1 1 1 1 1 1 0 0 0 0 0 0 0 0 0 0
1 1 1 0 0 0 0 0 1 1 1 2 2 3 3 3 3 3 3 4 3 3 3 3 3 2 2 1 1 1 1 1 1 1 1 1 1 1 1 0 0 0 0 0 0 0 0 0 0
1 1 1 0 0 0 0 0 1 1 1 2 2 3 3 3 3 3 3 4 3 3 3 3 3 2 1 1 1 1 1 1 1 1 1 0 0 0 0 0 0 0 0 0 0 0 0 0 0
1 1 0 0 0 0 0 0 1 1 2 2 3 3 3 3 3 3 3 3 3 3 3 3 3 2 1 1 1 1 1 1 1 1 0 0 0 0 0 0 0 0 0 0 0 0 0 0 0
1 1 0 0 0 0 1 1 1 1 2 2 2 2 2 2 2 3 3 3 3 3 4 3 3 2 1 1 1 1 1 1 1 0 0 0 0 0 0 0 0 0 0 0 0 0 0 0 0
0 0 0 0 0 0 1 1 1 1 1 2 2 2 2 2 2 2 2 2 3 3 3 3 2 2 1 1 1 1 1 1 1 0 0 0 0 0 0 0 0 0 0 0 0 0 0 0 0
0 0 0 0 0 0 1 1 1 1 1 2 2 1 1 1 2 2 2 2 2 2 3 3 2 2 2 1 1 1 1 1 1 0 0 0 0 0 0 0 0 0 0 0 0 0 0 0 0
0 0 0 0 0 0 0 0 1 1 2 2 2 1 1 1 1 2 2 2 2 2 2 2 2 2 2 1 1 1 1 1 0 0 0 0 0 0 0 0 0 0 0 0 0 0 0 0 0
0 0 0 0 0 0 0 0 0 1 1 2 1 1 1 1 1 2 2 2 2 1 1 1 2 2 2 1 1 1 1 1 1 0 0 0 0 0 0 0 0 0 0 0 0 0 0 0 0
0 0 0 0 0 0 0 0 0 1 1 1 1 1 1 1 1 2 2 2 1 1 1 1 1 1 1 1 1 1 1 1 1 1 1 0 0 0 0 0 0 0 0 0 0 0 0 0 0
0 0 0 0 0 0 0 0 1 1 1 1 1 1 1 1 1 1 1 1 1 1 1 1 1 1 1 1 1 1 1 2 2 1 1 1 1 0 0 0 0 0 0 0 0 0 0 0 0
0 0 0 0 0 0 0 1 1 1 1 1 1 1 1 1 1 1 1 1 1 1 1 1 1 1 1 1 1 1 1 2 2 2 2 1 1 1 1 1 1 1 0 0 0 0 0 0 0
0 0 0 0 0 0 1 1 2 1 1 1 1 1 1 1 1 1 1 1 1 1 1 1 1 1 1 1 2 2 2 2 2 2 2 2 1 1 1 1 1 1 1 1 1 1 1 1 1
0 0 0 0 0 0 1 1 1 1 1 1 1 1 1 1 1 1 1 1 1 1 1 1 1 1 1 2 2 2 2 2 2 2 2 2 2 1 1 1 1 1 1 1 1 1 1 1 1
0 0 0 0 0 1 1 1 1 1 1 0 0 0 1 1 1 1 1 1 1 1 1 1 1 1 1 2 2 3 3 3 2 2 2 2 2 2 2 1 1 1 1 1 1 1 2 2 2
0 0 0 0 0 0 0 0 0 0 0 0 0 0 0 0 0 0 1 1 1 1 1 1 1 1 1 2 2 3 3 3 3 3 3 3 2 2 2 2 2 2 2 2 2 2 2 2 2
0 0 0 0 0 0 0 0 0 0 0 0 0 0 0 0 0 0 0 1 1 0 0 1 1 1 1 1 2 2 3 3 3 3 3 3 3 3 3 2 2 2 2 2 3 3 3 3 3
0 0 0 0 0 0 0 0 0 0 0 0 0 0 0 0 0 0 0 0 0 0 0 1 1 1 1 1 1 1 2 2 2 3 3 3 3 3 3 3 3 3 3 3 3 3 3 3 3
0 0 0 0 0 0 0 0 0 0 0 0 0 0 0 0 0 0 0 0 0 0 0 0 0 1 1 1 1 1 1 1 2 2 2 3 3 3 3 3 3 4 4 4 4 4 3 3 3
0 0 0 0 0 0 0 0 0 0 0 0 0 0 0 0 0 0 0 0 0 0 0 0 0 0 0 0 1 1 1 1 1 1 1 2 2 2 3 3 4 4 5 5 5 4 4 3 3
0 0 0 0 0 0 0 0 0 0 0 0 0 0 0 0 0 0 0 0 0 0 0 0 0 0 0 0 1 1 1 1 1 1 1 1 2 2 3 4 4 5 6 6 5 5 4 3 2
0 0 0 0 0 0 0 0 0 0 0 0 0 0 0 0 0 0 0 0 0 0 0 0 0 0 0 0 0 1 1 1 1 1 1 1 1 2 2 3 4 5 5 5 5 4 3 2 2
0 0 0 0 0 0 0 0 0 0 0 0 0 0 0 0 0 0 0 0 0 0 0 0 0 0 0 0 0 0 0 1 1 1 1 1 1 1 2 2 3 4 4 4 4 3 2 1 1
0 0 0 0 0 0 0 0 0 0 0 0 0 0 0 0 0 0 0 0 0 0 0 0 0 0 0 0 0 0 0 0 0 0 1 1 1 1 1 1 1 2 2 2 2 1 1 0 0
0 0 0 0 0 0 0 0 0 0 0 0 0 0 0 0 0 0 0 0 0 0 0 0 0 0 0 0 0 0 0 0 0 0 0 1 1 1 1 1 1 1 1 1 1 0 0 0 0
Wind_Speed
6 4 3 3 7 11 23 21 17 15 14 12 9 8 9 9 6 1 5 9 14 16 18 20 17 17 16 15 13 13 12 13 14 15 16 17 17 17 16 16 16 16 16 15 15 14 14 13 13
5 3 3 6 12 18 20 20 19 16 12 8 9 9 8 6 1 3 5 11 15 17 17 17 18 17 17 16 14 14 13 14 14 15 16 16 17 17 16 16 16 16 15 15 14 13 13 12 12
4 4 5 7 16 21 20 17 16 14 12 9 9 8 7 5 4 5 7 13 15 16 16 17 17 17 17 16 15 14 14 14 14 15 15 16 17 17 16 16 15 15 14 14 13 12 12 11 11
3 4 6 11 23 23 21 15 11 12 13 11 10 7 4 2 3 5 11 15 16 16 15 17 16 17 17 16 15 15 14 14 15 15 15 16 16 16 16 15 15 14 13 13 12 11 11 10 10
3 5 11 16 23 22 18 16 12 13 13 12 12 11 7 4 4 8 12 15 16 15 14 17 16 17 17 16 15 14 14 15 15 15 15 15 16 16 16 15 14 13 13 12 11 11 10 10 9
5 6 12 18 22 21 19 17 15 16 15 13 11 12 9 5 9 11 12 13 14 15 14 16 16 15 16 15 15 14 14 14 14 14 15 15 15 15 15 14 14 13 12 11 10 10 9 9 8
6 9 16 20 19 20 18 16 17 17 18 15 10 12 8 8 9 11 11 12 13 13 13 13 15 15 14 13 13 13 13 13 13 13 14 13 13 14 14 13 12 12 11 10 9 8 8 8 7
5 7 15 17 19 19 15 15 16 18 19 12 11 11 9 8 10 11 10 9 11 12 12 13 14 14 14 13 12 11 11 12 12 12 12 12 11 11 11 11 10 10 10 9 8 7 7 6 5
5 9 15 16 16 15 12 14 14 13 15 13 11 10 6 7 11 12 11 9 10 11 11 12 12 13 13 13 13 12 11 11 12 12 12 11 10 11 9 10 8 8 8 8 7 6 6 5 5
7 11 17 13 11 11 11 13 12 12 15 14 10 6 5 9 13 14 14 13 12 12 12 10 11 13 13 10 11 10 10 11 10 10 12 9 8 7 7 10 7 7 6 6 6 5 5 5 4
8 11 11 11 10 10 11 12 11 13 15 14 11 8 7 10 12 13 14 13 12 11 11 11 11 11 12 9 9 7 7 8 9 11 10 8 7 6 6 6 6 6 7 6 6 6 4 3 1
9 11 11 9 8 9 12 11 11 13 13 10 8 6 8 11 12 14 14 13 12 11 12 12 12 11 11 10 8 8 7 7 7 8 10 7 5 6 6 4 5 5 4 4 4 3 3 3 3
11 10 9 10 9 10 11 12 12 13 11 9 7 7 8 10 11 11 11 12 13 12 12 13 13 12 11 10 8 8 8 8 8 7 8 8 6 6 6 5 4 4 4 4 4 4 3 3 3
7 7 9 9 11 10 10 12 11 12 10 10 10 10 9 10 10 10 10 11 13 14 13 12 13 12 12 10 9 8 8 7 7 7 8 9 6 6 5 5 5 4 4 3 4 4 3 3 3
6 7 8 9 9 7 7 11 12 11 9 11 11 10 9 8 9 10 11 11 11 10 11 12 12 13 13 12 11 8 8 8 7 7 9 9 7 7 6 5 5 4 4 4 3 4 3 3 3
5 7 6 5 5 6 8 11 8 7 9 11 10 9 8 8 9 9 9 9 9 8 9 11 10 12 12 11 10 7 8 8 7 7 7 9 9 8 6 5 5 5 4 4 3 3 3 3 3
5 6 6 5 4 5 8 9 6 5 8 9 8 7 7 7 7 8 9 9 9 9 9 10 10 11 11 10 8 8 7 8 7 7 7 8 9 9 7 5 5 5 4 4 4 4 3 3 3
5 5 6 6 3 5 8 8 6 6 7 8 7 6 6 7 6 7 7 9 10 10 9 9 10 10 10 8 7 6 7 6 6 7 7 9 8 9 7 5 6 6 5 4 4 5 4 3 3
6 6 6 7 5 5 8 8 6 6 7 8 7 6 7 6 6 6 7 7 8 9 9 10 11 10 8 7 7 7 7 7 6 6 8 9 8 9 7 5 6 5 5 5 5 4 5 3 2
7 6 6 6 4 5 6 6 5 5 6 6 6 6 6 5 5 7 7 8 9 9 10 11 12 11 10 8 6 5 5 5 5 5 7 8 9 8 6 7 5 5 4 5 5 5 4 3 3
4 5 5 4 2 4 5 4 4 4 5 5 5 5 5 6 6 6 7 7 8 8 8 8 9 9 10 9 6 5 4 3 4 6 6 8 8 8 7 7 6 5 5 5 6 6 6 4 4
3 3 4 5 4 2 4 2 1 1 3 3 4 4 5 5 5 5 5 6 7 8 7 7 7 8 9 9 8 9 7 6 6 6 6 7 7 7 7 7 7 6 5 5 5 5 5 5 4
2 2 3 4 2 1 1 1 1 1 1 1 2 3 3 3 4 4 4 4 5 5 6 6 6 6 7 8 8 8 7 5 4 5 6 6 6 6 7 7 7 6 5 6 6 5 5 4 5
2 2 2 2 1 1 1 1 3 3 3 2 1 2 2 2 3 3 2 2 3 3 4 5 6 5 5 6 7 8 8 7 7 7 7 6 4 5 7 7 7 6 6 6 6 6 6 5 5
2 3 2 2 1 2 1 1 4 6 6 4 3 3 3 3 4 4 3 2 2 3 3 4 6 5 5 7 7 8 8 8 9 8 8 7 6 5 7 7 7 6 6 6 6 6 5 5 5
1 3 3 1 2 3 1 3 5 6 6 5 5 5 6 5 5 5 3 3 2 2 2 3 4 5 5 5 6 6 7 6 5 7 7 7 6 6 7 7 7 7 7 6 6 5 5 4 4
1 1 3 2 1 2 3 3 5 7 8 9 9 9 8 7 7 6 5 5 4 3 2 1 2 3 3 3 4 5 6 6 5 6 6 5 5 5 8 7 7 7 7 6 6 4 5 5 4
2 1 2 1 0 3 4 4 3 6 7 8 9 10 9 8 7 6 6 5 5 4 3 2 1 1 1 2 3 3 4 5 5 5 6 6 7 7 8 8 7 7 6 6 6 5 5 6 5
1 1 1 1 3 1 3 4 5 4 5 7 9 9 9 9 8 7 6 5 5 5 4 3 2 2 1 1 1 2 2 3 4 5 6 6 7 8 9 8 8 8 7 7 6 6 6 6 6
2 2 2 1 2 2 3 5 5 4 6 7 8 9 9 9 8 7 7 7 6 6 5 4 4 3 2 1 0 1 2 3 4 5 5 6 7 8 8 8 8 8 8 8 8 7 7 7 7
Wind_Direction
294 297 267 226 221 226 234 232 230 227 226 225 225 226 227 220 220 208 83 158 157 158 154 153 154 153 150 147 146 146 146 147 148 146 144 142 138 135 132 129 127 125 122 118 112 108 105 101 98
288 264 224 219 226 226 230 229 226 223 223 219 219 224 223 222 262 90 136 154 157 157 155 156 151 153 150 148 147 146 147 147 147 144 142 140 137 134 132 129 127 125 122 117 113 110 108 105 101
263 220 220 222 228 230 231 223 228 226 224 220 218 224 232 215 162 146 148 155 157 156 156 148 153 153 150 149 149 147 147 147 144 143 141 139 136 134 132 129 127 124 121 118 116 113 110 107 103
225 200 223 232 233 232 238 235 224 227 225 226 227 215 208 194 157 142 148 158 157 156 156 149 156 153 151 152 151 150 148 146 143 143 141 138 135 133 131 129 126 124 123 122 121 119 115 111 107
219 218 223 232 237 235 236 238 230 229 227 225 225 228 207 178 145 141 154 162 158 155 155 153 157 154 153 155 153 152 151 147 144 142 140 138 135 134 132 130 128 128 128 127 125 124 121 117 112
210 220 228 234 238 236 232 231 234 236 238 233 229 236 229 177 158 153 159 164 160 155 154 154 157 155 155 157 155 153 151 148 145 143 141 139 138 136 135 135 134 134 133 130 127 124 123 120 116
224 223 237 239 244 240 232 228 232 234 237 234 233 238 226 186 165 154 160 166 161 157 155 157 161 159 156 155 155 154 151 146 143 143 139 135 133 136 138 139 139 138 135 131 128 125 123 120 116
234 235 240 237 243 245 237 233 233 236 241 241 238 236 224 185 162 157 157 167 165 161 157 160 165 164 163 160 153 150 146 142 139 134 128 126 129 134 137 143 138 138 135 132 129 127 124 120 117
221 232 235 234 237 247 244 236 234 237 242 240 239 246 251 179 164 163 160 169 173 166 162 164 167 167 165 161 153 152 145 138 138 133 129 143 151 148 151 135 129 134 133 133 133 130 124 129 131
213 233 238 241 246 256 255 244 238 231 230 233 233 244 228 182 176 176 173 173 176 173 167 168 170 170 165 159 161 164 160 157 164 157 157 163 155 147 143 124 125 127 129 137 134 132 156 205 169
222 239 247 250 253 258 260 252 242 238 230 228 224 222 203 191 186 183 182 178 176 179 172 175 172 173 168 162 164 165 163 164 168 165 166 162 154 149 155 155 153 157 164 165 154 182 189 202 192
243 246 251 257 260 256 259 257 245 239 243 239 230 224 208 198 198 191 187 186 180 184 181 182 177 174 176 168 166 167 165 166 166 168 170 167 164 167 165 171 169 173 177 175 189 201 187 203 208
243 254 257 259 261 256 261 260 253 248 256 252 238 217 215 209 205 198 189 189 184 189 188 186 182 179 179 173 169 171 170 171 168 169 175 176 172 171 170 173 175 182 180 185 195 205 199 214 222
257 260 267 267 261 255 254 262 252 248 247 236 227 218 215 215 201 186 190 192 190 191 189 185 185 184 183 179 174 173 172 171 172 173 178 182 179 176 176 177 181 183 189 194 204 208 216 226 238
268 267 270 262 254 245 242 255 244 253 239 224 223 222 224 213 203 191 194 197 194 191 189 189 184 185 186 184 180 175 174 173 176 178 182 186 185 183 185 187 188 188 189 195 208 210 230 238 246
256 251 247 253 243 231 217 246 246 240 220 217 219 217 218 211 205 198 194 199 199 192 191 191 186 185 187 183 180 177 180 177 179 182 185 190 190 191 192 194 195 190 191 200 207 219 225 229 242
229 240 250 275 243 228 218 242 248 234 214 212 211 213 212 208 211 203 199 201 202 199 197 195 190 189 187 180 179 177 180 182 179 182 188 192 194 195 198 200 196 191 196 201 202 220 230 234 240
233 244 261 267 244 227 224 235 242 231 220 221 218 214 210 208 214 207 202 204 204 201 198 201 193 190 187 176 172 173 182 185 183 186 188 189 192 194 196 197 197 192 197 200 203 207 218 243 251
254 249 261 278 267 241 232 233 233 227 224 220 216 212 207 212 219 207 201 206 205 205 203 204 196 192 188 179 176 178 184 186 186 187 187 190 190 189 190 191 194 196 202 203 206 209 214 222 238
241 249 268 278 256 234 230 241 240 232 235 226 212 209 207 206 215 206 201 202 204 207 207 207 199 192 192 188 178 178 175 183 185 180 185 189 188 186 185 188 187 192 201 205 207 208 213 210 219
252 253 254 269 271 244 234 238 238 231 230 223 216 219 217 205 204 203 200 205 203 209 212 213 204 196 193 185 170 161 160 161 175 181 184 189 185 183 182 183 183 188 199 206 206 208 214 211 205
262 259 246 245 224 202 231 208 202 200 200 196 197 199 212 204 198 197 191 194 199 205 207 205 203 195 193 188 184 185 188 192 194 185 184 184 185 186 184 184 184 189 195 202 204 209 215 222 212
264 290 248 238 222 182 261 209 90 91 143 147 163 170 192 197 193 194 189 188 196 200 201 193 195 190 185 189 194 195 197 196 180 175 181 184 184 185 185 184 183 187 193 198 196 197 205 220 225
242 245 237 237 225 121 334 229 77 38 359 346 44 121 142 144 140 137 145 157 169 173 182 183 185 191 193 194 200 200 201 192 182 185 188 188 183 186 188 183 184 186 191 191 191 194 198 207 215
245 251 204 176 156 78 12 81 55 10 358 351 17 58 91 103 100 106 115 130 142 148 150 173 181 178 185 196 204 208 209 203 199 197 198 194 190 193 191 183 184 185 188 185 182 186 187 198 201
271 297 322 22 103 101 67 62 50 22 25 35 53 66 75 79 80 83 85 80 86 114 145 175 176 172 182 196 204 210 211 210 209 203 200 202 199 192 181 182 181 178 177 174 175 175 176 182 189
232 317 325 352 64 105 89 84 71 45 49 51 56 60 60 62 66 66 64 63 61 64 78 165 175 173 178 194 200 208 208 209 213 210 206 202 196 180 175 177 175 171 170 170 168 176 175 174 181
318 311 266 285 67 101 92 65 34 23 34 43 49 49 50 53 59 59 52 50 46 43 46 51 98 143 165 186 189 198 200 205 205 203 203 194 187 176 173 176 172 169 167 168 172 170 173 173 173
4 30 10 23 345 39 105 74 20 23 37 48 51 49 50 50 49 46 45 42 41 40 38 37 42 62 96 163 184 184 193 202 202 204 200 190 181 176 177 175 172 170 170 173 174 176 174 178 174
308 342 324 331 60 28 84 77 33 44 53 52 52 49 49 50 48 47 46 44 41 35 29 24 20 23 19 2 229 200 194 198 199 196 190 183 177 173 174 174 173 173 175 177 179 177 180 181 181